Wind_Speed
10 11 12 12 13 13 14 15 16 17 18 18 18 18 19 20 21 22 23 24 25 26 27 28 29 30 30 31 31 31 31 31 30 30 30 30 31 31 32 33 34 35 37 38 39 41 42 43 44 45 46 47 47 47 48 48 47 44 43 42 43 45
11 12 13 13 14 14 15 16 17 17 17 18 18 19 20 21 22 24 25 25 26 27 27 28 29 30 30 31 30 30 29 29 28 28 29 30 31 32 33 34 35 36 38 39 40 41 42 43 44 45 46 46 47 47 47 45 41 39 39 42 44 47
12 13 13 13 14 15 15 16 17 17 17 17 18 20 21 22 24 25 25 25 26 27 28 29 30 30 30 29 28 28 27 27 27 28 29 30 32 33 34 35 37 38 39 41 41 42 43 44 44 45 45 46 46 46 43 39 38 39 42 45 48 51
12 13 13 14 14 15 15 16 16 17 17 18 20 21 22 23 24 25 26 26 27 28 29 29 29 29 28 28 27 27 27 27 28 29 31 32 33 35 36 37 38 39 41 42 42 43 44 44 44 45 45 45 44 41 38 37 39 42 46 49 52 54
13 13 13 14 14 14 15 16 17 17 18 19 21 22 23 24 25 26 27 28 28 28 29 29 29 28 28 27 27 27 27 28 29 31 32 34 35 36 37 38 39 40 41 42 43 44 44 44 45 45 45 42 38 35 34 37 41 45 49 51 54 57
13 13 13 13 13 13 14 16 17 17 19 20 21 22 24 25 27 28 28 28 28 28 29 29 28 28 27 27 27 27 28 29 31 32 34 35 36 37 38 38 39 40 41 42 43 44 44 44 45 44 40 35 32 32 34 39 43 47 49 51 55 58
13 13 12 12 12 13 14 16 17 18 19 20 21 23 25 26 28 29 29 28 28 28 28 28 28 28 27 27 27 28 29 31 33 34 35 36 36 37 38 39 40 40 41 42 43 43 44 45 43 39 33 30 31 33 37 41 43 45 47 51 55 54
13 12 11 11 12 13 14 16 17 18 19 21 22 24 25 27 28 29 28 28 28 28 28 28 28 28 27 28 28 29 31 32 34 35 36 36 37 37 38 39 40 40 41 41 42 43 45 43 39 33 29 29 32 36 39 41 42 44 47 51 50 44
13 12 11 11 12 13 14 15 17 18 20 21 23 24 26 27 28 28 28 28 28 28 28 28 28 28 28 28 29 30 32 33 35 35 36 37 37 38 39 40 40 40 41 40 41 44 44 40 34 29 29 31 35 38 40 40 41 43 45 46 42 36
13 12 11 11 12 13 14 15 17 18 20 21 22 24 26 27 28 28 28 28 28 28 28 28 29 28 29 29 30 31 33 34 35 36 37 38 38 39 40 40 41 41 41 42 43 44 40 35 30 29 31 34 38 39 39 40 41 42 42 40 36 32
12 12 12 12 12 13 14 15 17 18 20 21 22 24 26 27 28 27 28 29 28 28 28 29 29 29 30 31 31 32 34 35 36 37 38 39 39 39 40 41 41 42 42 43 45 43 37 31 30 31 34 38 39 39 38 39 41 40 38 35 33 31
12 12 12 12 12 13 14 15 17 18 20 21 23 24 26 27 28 28 29 29 28 28 29 29 30 31 31 31 32 33 34 36 37 38 38 39 39 40 40 41 42 42 43 44 45 41 36 32 32 34 37 39 38 37 37 39 41 38 35 33 32 31
12 12 12 12 13 13 14 16 17 19 20 21 23 25 26 27 28 28 29 28 28 28 29 30 31 32 32 32 32 33 35 36 37 38 39 39 39 40 41 41 42 43 44 45 45 39 35 34 35 36 38 38 36 36 37 39 40 36 34 33 32 33
12 11 12 12 13 14 15 16 17 19 20 22 23 25 26 27 27 28 28 28 28 28 29 31 32 33 33 32 33 34 36 37 38 39 39 39 40 40 41 41 42 43 44 46 45 39 36 36 36 35 35 35 35 35 37 38 38 35 33 32 32 33
12 11 12 13 14 14 15 17 18 19 21 22 23 24 26 27 27 28 28 28 28 28 29 31 33 33 33 33 33 35 36 38 39 39 39 39 39 40 41 41 42 43 46 46 44 40 38 38 36 34 33 34 34 35 35 36 35 33 32 31 31 32
12 12 12 13 14 15 16 17 18 20 21 22 24 25 26 27 27 28 28 28 28 28 30 32 33 34 34 34 34 36 37 38 39 39 39 39 39 39 40 41 42 43 46 46 43 40 39 39 38 35 34 34 35 35 34 34 32 30 29 28 28 31
13 13 13 14 15 15 16 18 19 20 21 23 24 25 26 27 27 28 28 27 28 28 30 32 33 34 35 34 35 36 37 38 39 39 38 38 38 39 40 41 42 43 46 46 43 40 40 39 39 38 36 35 35 34 33 32 29 27 26 25 27 30
13 14 14 15 16 16 17 18 20 21 22 23 24 25 26 27 27 28 28 27 28 29 31 32 33 34 35 35 35 36 37 39 39 38 38 38 38 38 39 41 42 43 46 47 44 41 40 41 41 40 39 39 38 34 31 29 27 24 23 23 25 28
14 15 16 16 16 17 18 19 20 21 22 23 24 25 26 27 27 28 27 27 28 29 31 33 33 34 35 35 35 36 37 39 39 38 38 38 38 38 39 40 41 43 46 47 45 42 41 42 43 43 43 42 39 34 28 25 23 22 21 22 24 26
15 16 16 17 17 18 18 19 20 21 22 23 24 25 26 27 27 28 27 27 28 29 31 33 34 34 35 35 35 36 37 39 39 38 38 37 37 37 38 39 41 43 46 47 44 42 41 42 43 44 45 42 37 34 28 22 20 19 20 22 24 25
16 17 17 18 18 19 19 19 20 21 22 23 24 25 26 27 27 27 27 27 28 29 32 34 34 34 35 35 35 36 38 39 38 38 38 37 37 37 37 39 40 42 45 46 44 42 40 41 44 45 43 39 36 36 30 20 17 18 20 22 23 23
16 16 17 18 19 19 19 20 20 21 21 22 24 24 26 27 27 28 27 27 28 29 32 33 33 34 35 35 34 36 38 39 38 38 38 37 37 36 37 39 40 41 43 46 45 43 41 41 43 44 40 36 36 37 32 20 16 18 19 22 22 21
16 16 17 17 19 19 20 20 20 21 21 22 23 24 26 27 27 27 26 27 28 29 32 33 33 35 35 35 34 36 38 38 38 37 37 37 36 36 36 38 39 41 43 45 46 45 43 41 43 45 40 35 35 36 32 20 15 16 17 21 21 19
15 16 17 17 18 19 20 20 20 21 21 22 23 24 26 26 26 26 26 26 27 29 32 33 34 35 36 35 34 35 37 38 38 37 37 36 36 35 35 36 38 39 41 43 45 46 46 44 44 46 43 37 35 37 32 19 10 13 17 21 20 19
15 16 17 18 19 20 20 20 20 20 20 21 23 23 25 25 26 25 25 26 27 29 31 32 34 35 36 36 34 35 37 38 38 37 37 37 36 35 34 35 36 37 39 41 44 46 47 46 45 46 43 37 35 38 35 24 13 12 16 19 19 20
15 16 17 18 19 20 21 20 20 20 20 20 22 23 24 25 25 25 25 26 28 28 30 32 34 35 36 36 35 35 36 37 38 38 37 37 36 34 33 33 34 36 37 39 42 44 46 47 45 46 44 39 36 36 35 30 22 17 17 19 19 19
15 16 17 18 20 20 20 20 19 19 19 19 21 22 24 25 25 25 25 26 27 28 30 31 33 35 36 36 35 35 35 37 38 38 38 37 36 35 33 32 33 34 36 38 40 42 44 46 46 46 45 42 38 34 32 32 28 23 21 20 19 19
15 16 16 17 19 20 20 19 18 18 18 19 20 22 24 24 25 25 24 25 26 27 29 31 33 35 35 36 35 34 35 36 37 37 37 37 36 35 33 32 32 33 35 36 38 41 43 45 45 45 46 45 41 36 32 31 29 27 25 23 21 21
14 15 16 17 18 19 19 18 17 17 17 18 20 22 24 24 24 25 24 25 26 27 29 31 32 34 35 36 35 33 33 35 36 37 37 36 36 35 34 32 32 32 34 36 37 39 41 43 44 44 44 44 44 40 35 32 30 29 27 25 23 23
14 14 15 17 18 18 18 17 16 16 17 18 19 22 23 23 24 24 23 24 26 27 28 30 32 33 34 35 35 33 33 34 36 36 36 36 35 35 34 32 32 32 33 34 36 38 39 41 42 43 43 43 43 42 38 33 30 29 27 26 25 23
13 14 15 16 17 17 17 16 16 16 16 18 19 21 23 23 23 24 23 23 25 27 28 30 31 33 34 34 35 33 32 33 35 36 36 35 34 34 33 32 31 31 31 32 33 35 36 38 39 40 42 42 42 41 40 36 32 30 28 28 27 26
13 14 15 17 17 17 16 15 15 15 16 17 19 21 23 23 23 24 23 23 24 26 28 30 31 32 33 34 34 33 31 32 33 35 35 35 34 33 32 32 31 31 30 30 31 32 33 35 37 38 39 40 40 40 40 37 35 33 30 29 29 29
14 15 16 17 17 16 16 15 14 14 15 17 19 21 23 23 23 24 24 23 24 26 28 29 31 32 32 33 33 32 31 30 32 34 35 35 34 33 32 32 32 32 31 30 30 30 31 33 34 36 37 37 39 39 39 37 36 35 33 31 30 29
15 16 17 18 17 16 15 14 14 14 15 17 19 22 23 23 23 24 24 23 23 25 27 29 30 31 32 32 33 32 30 30 30 32 34 35 35 34 34 32 32 32 33 32 31 30 30 31 32 33 34 35 36 37 37 37 36 35 34 33 31 30
16 16 17 18 17 16 15 14 14 14 15 17 19 22 23 23 23 23 23 22 23 25 27 28 30 30 31 32 32 32 31 30 29 31 33 34 34 35 34 34 33 32 32 33 32 31 30 29 29 30 31 33 34 34 35 35 35 34 33 33 32 31
16 17 17 17 17 16 15 14 14 15 16 17 19 22 23 23 23 23 22 22 22 24 26 28 29 30 31 32 31 31 32 31 29 29 31 33 34 35 35 35 34 33 32 32 32 31 30 29 28 28 28 30 31 32 32 33 33 33 33 32 31 31
17 17 17 18 17 15 14 14 14 15 16 18 20 22 22 22 22 22 21 21 22 24 25 27 28 30 31 32 31 31 32 32 30 29 30 32 33 34 35 35 35 34 33 32 31 30 30 29 28 27 26 27 28 29 30 30 31 31 32 32 31 30
Wind_Direction
41 32 27 25 23 21 19 15 12 9 5 0 355 350 348 345 341 339 338 338 336 334 332 330 327 325 324 323 322 321 321 321 321 321 320 319 317 316 314 312 311 309 307 306 304 303 301 300 299 298 296 295 294 293 292 291 290 289 289 289 288 288
35 31 30 29 27 23 19 16 12 8 3 358 353 350 349 346 344 343 341 339 336 334 333 332 331 330 328 326 325 324 324 324 324 324 322 321 319 318 316 314 313 311 309 307 306 305 303 302 301 299 298 296 295 294 293 291 290 289 290 289 289 288
34 34 34 32 29 25 21 16 12 7 2 357 354 353 351 347 345 343 340 337 336 336 336 336 334 332 329 327 327 327 328 328 328 326 325 323 322 321 319 318 316 314 312 310 308 307 305 304 302 301 299 298 297 295 293 289 287 288 289 289 288 286
35 37 36 33 30 25 20 15 11 7 1 357 355 353 349 347 345 341 339 339 339 339 338 337 334 331 329 330 331 331 332 331 330 329 328 327 326 324 322 320 318 315 313 312 310 309 307 306 305 303 302 300 298 295 291 287 286 287 289 289 289 289
35 37 35 33 29 23 18 14 11 6 0 357 354 350 348 346 344 343 343 342 340 339 338 336 334 333 333 334 335 335 334 333 333 332 331 330 328 326 323 321 318 316 315 314 312 311 310 309 308 306 304 302 299 296 292 288 286 287 289 291 292 293
34 34 31 28 24 19 16 14 10 4 359 356 352 349 348 346 345 346 345 342 339 338 337 336 335 337 338 338 338 337 337 337 336 336 334 332 329 326 324 322 320 318 317 315 314 313 312 311 310 308 305 304 302 299 294 289 288 289 293 295 297 298
31 28 25 22 17 14 14 12 6 1 357 353 351 350 348 346 347 346 343 341 340 338 337 338 339 340 340 340 339 340 340 340 339 337 335 333 330 327 325 323 321 320 319 318 317 316 315 314 312 309 306 305 303 298 293 291 292 295 299 301 303 303
27 23 19 15 11 10 10 8 2 358 355 352 350 349 347 348 347 345 342 341 340 339 339 341 343 342 342 342 342 342 343 342 341 338 336 334 331 329 327 325 324 323 322 321 320 319 319 317 314 310 308 306 301 297 295 296 299 303 305 306 308 307
22 18 14 9 4 5 6 2 358 355 352 351 349 347 348 348 345 344 343 342 341 341 343 344 345 344 344 344 344 344 345 344 342 339 337 335 333 331 329 327 326 325 324 324 324 325 323 319 315 312 310 305 300 298 299 301 306 308 309 311 312 307
18 14 9 3 359 360 0 357 354 352 350 348 346 347 348 346 344 344 343 343 343 344 346 347 346 346 345 345 346 347 347 345 342 340 338 336 335 333 331 329 328 328 329 330 330 329 325 319 315 312 310 305 303 302 302 306 310 311 312 315 313 303
14 10 4 356 353 354 355 352 349 348 347 346 345 347 347 344 344 344 345 345 345 346 349 349 348 348 347 347 348 348 347 345 343 341 340 338 336 334 333 333 332 333 334 334 334 333 327 320 315 312 310 308 307 306 305 310 312 312 314 317 313 302
9 5 358 350 348 349 349 347 346 345 344 343 345 347 345 344 345 346 346 346 346 349 351 351 351 350 350 350 350 350 348 346 344 343 341 339 338 336 336 336 337 337 338 337 337 335 329 323 318 315 313 312 312 309 309 313 313 311 314 317 316 308
3 359 352 345 343 344 344 343 343 342 341 342 345 346 343 344 346 347 346 347 348 351 353 355 354 353 352 352 352 351 348 347 346 344 342 340 339 339 338 340 340 340 341 341 340 338 332 327 322 320 318 317 315 313 314 315 313 311 312 315 316 314
357 353 347 341 340 342 340 339 340 339 340 342 345 344 343 345 347 347 347 348 350 353 356 357 356 355 354 353 353 351 350 348 347 345 343 342 341 340 340 342 343 344 344 344 344 342 337 333 330 327 324 321 318 317 318 316 313 312 312 315 318 316
351 348 343 339 339 339 336 336 337 337 339 341 343 342 343 346 347 347 348 349 351 354 357 357 357 356 355 355 354 353 351 350 348 346 345 344 343 341 342 344 346 347 348 348 347 345 341 339 337 333 328 325 322 322 321 318 315 315 317 320 320 317
347 344 341 338 337 336 334 334 334 336 338 339 340 341 344 347 347 347 349 350 352 355 357 357 357 357 357 356 355 354 353 351 349 347 346 345 344 343 344 347 350 350 350 351 350 348 346 344 342 338 332 328 324 324 322 321 319 318 321 323 321 319
345 342 339 337 335 334 333 332 332 335 336 337 339 342 344 346 347 347 349 351 352 355 357 357 357 357 358 357 356 356 354 352 350 348 347 347 346 345 347 351 352 352 352 354 353 351 350 348 346 342 337 332 326 323 321 322 324 322 324 327 324 324
343 340 337 334 333 331 330 330 332 334 334 335 338 341 344 346 346 347 350 351 352 354 356 356 356 356 357 357 357 357 355 353 351 349 349 348 347 347 350 353 354 354 355 357 356 354 354 352 350 346 342 337 330 327 323 324 327 327 329 330 327 330
339 336 333 331 329 328 329 330 331 331 331 333 337 340 344 346 346 347 350 352 353 354 355 356 356 356 357 357 357 357 356 354 352 351 351 350 349 349 352 355 356 357 358 360 359 357 358 357 354 350 345 340 337 337 333 329 332 334 336 334 334 338
335 332 330 329 327 326 327 327 327 328 329 331 335 339 344 345 346 347 349 352 354 354 355 356 356 357 357 358 358 358 357 356 354 353 352 351 350 351 353 356 358 359 1 3 2 1 1 2 360 354 348 345 347 351 347 340 338 341 343 341 342 346
334 331 329 328 326 325 324 324 325 327 328 330 334 339 343 345 345 347 350 353 354 354 356 357 358 358 358 358 358 358 358 357 356 355 354 353 352 352 354 357 0 0 2 4 5 4 4 5 5 359 354 352 355 358 357 350 345 351 352 346 348 351
333 330 328 327 325 323 323 324 325 325 327 330 333 339 343 344 345 347 350 353 354 355 357 359 359 359 360 360 359 360 360 359 358 356 355 354 353 354 355 358 1 1 2 4 6 7 7 9 8 4 1 1 0 2 4 1 356 360 358 353 355 355
331 328 328 327 325 323 323 325 325 325 327 330 333 339 343 344 344 346 349 353 355 357 359 0 1 1 1 1 1 1 1 0 360 358 357 356 355 355 356 359 2 2 2 4 7 8 9 12 12 9 7 7 9 10 10 6 360 2 0 359 2 1
327 326 326 326 325 324 324 325 325 326 328 331 334 339 342 342 343 345 349 353 356 358 0 1 1 1 2 2 3 3 2 2 1 0 359 358 357 356 357 359 2 3 3 4 7 8 9 12 13 13 11 9 14 18 16 14 8 0 357 358 3 6
324 323 324 325 324 324 325 326 326 328 330 331 333 337 340 341 342 345 349 353 357 359 1 2 1 2 3 3 4 4 3 3 2 2 1 359 359 358 358 360 3 4 4 5 8 10 10 12 14 14 12 10 16 21 18 16 13 1 356 1 7 10
323 321 322 322 323 325 327 328 327 329 330 330 332 336 340 341 342 345 350 354 358 360 1 2 1 3 4 4 4 5 5 4 4 3 2 1 1 359 359 0 2 5 5 5 9 12 13 13 15 15 15 13 15 20 20 15 11 6 7 12 15 15
323 321 320 320 322 325 327 328 327 329 329 330 332 336 340 341 342 346 350 354 358 359 1 1 2 3 5 5 5 5 6 5 5 4 3 2 2 1 1 1 2 5 7 6 9 13 14 15 16 16 17 17 16 17 21 19 13 9 11 15 20 25
325 322 320 319 322 326 329 328 327 329 330 331 333 337 340 341 343 347 350 354 357 359 1 1 2 3 4 5 5 5 6 7 6 6 5 4 3 3 2 1 2 5 7 8 8 12 15 16 18 18 17 18 18 16 21 24 18 12 11 13 21 27
324 322 320 320 324 329 331 330 328 330 331 332 334 338 341 340 342 347 350 352 356 358 1 1 2 3 4 5 5 5 6 7 8 8 6 6 4 4 4 3 2 4 7 8 9 11 14 16 19 19 18 19 20 19 19 22 22 18 13 15 22 25
322 320 321 323 328 331 332 331 330 332 332 333 335 339 341 340 342 347 349 351 355 358 0 1 2 3 4 5 5 5 6 7 9 9 8 8 7 6 6 5 3 4 7 8 9 11 13 15 18 20 20 20 21 22 21 21 22 22 18 17 21 24
320 320 323 327 331 334 334 333 333 333 334 334 337 340 340 340 342 348 350 351 354 357 360 1 1 3 4 5 6 5 6 7 9 10 10 10 10 9 8 7 5 5 6 8 10 11 12 14 16 19 21 21 21 23 24 23 22 23 23 20 20 21
321 323 327 332 336 339 338 336 335 335 334 335 338 341 340 339 342 348 350 350 353 356 359 360 0 2 4 5 6 6 6 7 9 10 11 12 13 13 12 10 9 7 7 8 10 11 13 14 14 17 21 22 22 23 25 26 25 24 24 23 23 22
326 328 332 337 341 343 341 338 337 336 336 337 340 342 341 340 343 349 351 350 354 356 357 359 360 2 4 6 7 7 6 6 8 10 11 13 14 15 16 14 12 11 10 10 10 10 12 13 14 15 18 22 23 24 25 26 27 26 25 25 25 26
330 332 336 341 343 346 344 341 340 338 338 340 343 343 341 340 344 349 351 351 354 355 356 358 359 1 4 6 7 7 6 6 7 9 10 12 14 16 17 17 15 13 13 12 11 10 11 13 14 14 15 18 22 24 25 25 26 26 25 26 26 27
333 335 339 342 345 348 347 344 343 340 341 344 345 344 342 342 345 350 352 353 355 356 356 358 359 2 4 6 8 8 7 6 6 8 9 10 12 14 16 18 17 15 14 13 13 11 11 11 13 13 13 15 19 23 25 25 25 25 25 25 26 28
336 337 341 344 347 350 350 348 345 343 344 346 346 345 343 343 348 352 355 357 359 357 358 359 0 3 5 6 8 9 9 7 5 6 7 8 9 11 14 16 17 17 15 13 12 12 11 11 10 11 13 14 16 19 22 24 25 25 24 25 26 28
339 341 344 347 350 352 352 349 347 346 347 348 348 347 345 345 351 356 359 2 3 1 1 3 4 5 6 6 8 9 9 8 6 5 5 6 7 8 9 12 14 16 16 15 12 10 11 11 9 9 11 13 16 16 18 21 24 24 24 23 25 26
Height
5794 5794 5794 5794 5793 5792 5791 5790 5789 5789 5788 5787 5786 5784 5783 5781 5780 5778 5776 5774 5772 5770 5768 5766 5764 5762 5759 5757 5754 5752 5750 5747 5745 5742 5740 5737 5735 5732 5730 5727 5725 5722 5719 5716 5714 5711 5708 5705 5703 5700 5697 5695 5692 5690 5687 5685 5683 5680 5678 5676 5674 5671
5795 5795 5794 5793 5793 5792 5791 5790 5789 5789 5788 5787 5785 5784 5782 5780 5779 5777 5775 5773 5771 5769 5767 5765 5762 5759 5757 5755 5752 5750 5748 5745 5743 5740 5738 5735 5733 5730 5727 5724 5721 5718 5715 5712 5710 5707 5704 5701 5697 5695 5692 5689 5686 5683 5681 5678 5676 5674 5672 5670 5668 5665
5795 5795 5794 5793 5793 5792 5791 5790 5789 5789 5787 5786 5784 5783 5781 5780 5778 5776 5774 5772 5770 5768 5765 5763 5760 5758 5755 5753 5750 5748 5746 5743 5741 5738 5736 5733 5730 5727 5724 5721 5717 5714 5711 5708 5705 5702 5699 5695 5692 5689 5686 5683 5680 5677 5674 5672 5670 5668 5666 5664 5661 5658
5795 5795 5794 5793 5793 5792 5791 5790 5789 5788 5787 5785 5784 5782 5781 5779 5777 5775 5773 5771 5768 5766 5764 5761 5759 5756 5754 5751 5749 5746 5744 5741 5739 5736 5733 5730 5727 5724 5720 5717 5714 5710 5707 5704 5700 5697 5693 5690 5687 5683 5680 5677 5673 5671 5668 5667 5665 5662 5660 5657 5654 5650
5795 5795 5794 5793 5792 5792 5791 5790 5789 5788 5786 5784 5783 5782 5780 5778 5776 5774 5772 5769 5767 5765 5763 5760 5757 5755 5752 5749 5747 5745 5742 5739 5737 5734 5730 5727 5724 5721 5717 5714 5710 5707 5703 5699 5695 5692 5688 5685 5681 5677 5674 5671 5668 5665 5663 5661 5659 5656 5653 5650 5647 5642
5795 5794 5794 5793 5792 5792 5791 5790 5789 5787 5785 5784 5783 5781 5779 5777 5775 5773 5770 5768 5766 5764 5761 5759 5756 5753 5750 5748 5745 5743 5740 5737 5734 5731 5728 5725 5721 5718 5714 5711 5707 5703 5699 5695 5691 5687 5683 5679 5675 5671 5668 5665 5663 5661 5658 5656 5653 5650 5647 5644 5640 5635
5795 5795 5794 5793 5792 5791 5790 5789 5788 5786 5785 5784 5782 5780 5778 5776 5774 5772 5770 5768 5765 5763 5760 5757 5754 5751 5749 5746 5744 5741 5738 5735 5732 5729 5725 5722 5718 5715 5711 5707 5703 5699 5695 5691 5686 5682 5678 5674 5669 5666 5663 5661 5659 5656 5653 5650 5647 5645 5642 5637 5633 5628
5795 5795 5794 5793 5792 5791 5790 5789 5787 5786 5784 5783 5781 5779 5778 5776 5773 5771 5769 5767 5764 5762 5758 5755 5753 5750 5747 5745 5742 5739 5736 5733 5730 5726 5723 5720 5716 5712 5708 5704 5700 5696 5691 5687 5682 5678 5673 5668 5664 5661 5659 5657 5654 5651 5648 5645 5643 5640 5636 5631 5627 5623
5795 5795 5794 5793 5792 5791 5790 5788 5787 5785 5784 5782 5780 5779 5777 5775 5773 5771 5768 5766 5763 5760 5757 5754 5751 5749 5746 5743 5740 5737 5734 5731 5728 5724 5721 5717 5713 5709 5705 5701 5697 5692 5688 5683 5678 5673 5668 5663 5660 5658 5655 5653 5649 5646 5643 5640 5638 5635 5631 5626 5622 5619
5795 5795 5794 5793 5792 5791 5789 5788 5786 5785 5783 5782 5780 5778 5776 5774 5772 5770 5768 5765 5762 5759 5756 5753 5750 5747 5744 5741 5738 5735 5732 5729 5726 5722 5718 5714 5710 5706 5702 5698 5693 5688 5684 5679 5674 5669 5664 5660 5657 5654 5651 5648 5645 5642 5639 5636 5633 5630 5626 5622 5619 5617
5795 5795 5794 5792 5791 5790 5789 5788 5786 5784 5783 5781 5779 5778 5776 5774 5771 5769 5766 5764 5760 5758 5755 5752 5749 5746 5743 5740 5737 5733 5730 5727 5724 5720 5716 5712 5708 5703 5699 5694 5690 5685 5680 5675 5670 5665 5660 5656 5653 5650 5647 5644 5641 5637 5634 5631 5628 5625 5622 5618 5616 5614
5795 5794 5793 5792 5791 5790 5789 5787 5785 5784 5782 5781 5779 5777 5775 5773 5770 5768 5765 5762 5759 5757 5754 5751 5748 5744 5741 5738 5735 5732 5729 5725 5722 5717 5713 5709 5705 5701 5696 5692 5687 5682 5677 5672 5667 5661 5657 5653 5650 5646 5643 5639 5636 5633 5630 5627 5624 5620 5618 5615 5613 5610
5795 5794 5793 5792 5791 5790 5788 5787 5785 5783 5782 5780 5778 5776 5774 5772 5769 5767 5764 5761 5758 5756 5753 5749 5746 5743 5740 5737 5734 5730 5727 5723 5719 5715 5711 5707 5703 5699 5694 5690 5685 5679 5674 5669 5663 5658 5654 5651 5647 5643 5639 5635 5632 5629 5626 5623 5619 5616 5614 5612 5609 5607
5795 5794 5793 5792 5790 5789 5788 5786 5785 5783 5781 5779 5777 5776 5774 5771 5769 5766 5763 5760 5757 5754 5751 5748 5745 5742 5739 5736 5732 5729 5725 5721 5717 5713 5709 5705 5701 5697 5692 5688 5683 5677 5672 5666 5661 5656 5652 5648 5644 5640 5636 5633 5629 5626 5623 5620 5616 5613 5611 5608 5606 5603
5794 5794 5792 5791 5790 5789 5788 5786 5784 5782 5780 5778 5777 5775 5773 5770 5768 5765 5762 5759 5756 5753 5750 5747 5744 5741 5738 5734 5731 5727 5724 5720 5716 5712 5708 5703 5699 5695 5690 5686 5681 5676 5670 5664 5659 5654 5650 5646 5642 5638 5634 5630 5627 5624 5620 5616 5613 5610 5608 5605 5603 5600
5794 5793 5792 5791 5790 5788 5787 5785 5784 5782 5780 5778 5776 5774 5772 5769 5767 5764 5762 5758 5755 5752 5749 5746 5743 5740 5736 5733 5730 5726 5722 5718 5714 5710 5706 5702 5698 5693 5689 5684 5679 5674 5669 5663 5657 5652 5648 5644 5640 5636 5633 5629 5625 5621 5617 5613 5610 5608 5605 5603 5601 5597
5794 5793 5792 5790 5789 5788 5786 5785 5783 5781 5779 5777 5775 5773 5771 5768 5766 5763 5761 5758 5755 5752 5749 5745 5742 5739 5735 5732 5728 5725 5721 5717 5713 5709 5705 5701 5697 5692 5688 5683 5678 5673 5668 5662 5656 5652 5647 5643 5639 5635 5631 5627 5622 5618 5614 5610 5608 5605 5603 5601 5598 5595
5793 5792 5791 5790 5789 5787 5786 5784 5782 5780 5778 5776 5774 5773 5770 5768 5765 5763 5760 5757 5754 5751 5748 5745 5741 5738 5734 5731 5727 5723 5720 5716 5711 5707 5703 5699 5695 5691 5687 5682 5677 5672 5666 5661 5655 5650 5646 5641 5637 5633 5628 5624 5619 5615 5611 5608 5606 5603 5601 5599 5597 5594
5793 5792 5791 5789 5788 5786 5785 5783 5781 5780 5778 5776 5774 5772 5770 5767 5764 5762 5759 5756 5753 5750 5747 5744 5741 5737 5733 5730 5726 5722 5719 5715 5710 5706 5702 5698 5694 5690 5686 5681 5677 5671 5666 5660 5655 5649 5644 5640 5635 5630 5625 5620 5615 5611 5608 5606 5604 5602 5599 5597 5595 5592
5793 5791 5790 5789 5787 5785 5784 5782 5781 5779 5777 5775 5773 5771 5769 5766 5763 5761 5758 5756 5753 5749 5746 5743 5740 5736 5732 5729 5725 5722 5718 5714 5709 5705 5701 5697 5693 5689 5685 5681 5676 5671 5666 5661 5655 5650 5645 5640 5635 5629 5623 5617 5613 5609 5606 5604 5603 5600 5598 5596 5594 5592
5792 5790 5789 5788 5786 5784 5783 5782 5780 5778 5776 5774 5772 5770 5768 5765 5763 5760 5758 5755 5752 5749 5746 5742 5739 5735 5732 5728 5724 5721 5717 5713 5709 5704 5700 5696 5692 5688 5684 5680 5676 5671 5666 5661 5656 5651 5646 5641 5636 5630 5623 5616 5612 5608 5604 5603 5602 5600 5598 5596 5594 5592
5791 5789 5788 5787 5785 5784 5782 5781 5779 5777 5775 5774 5772 5770 5767 5764 5762 5759 5757 5754 5752 5748 5745 5741 5738 5734 5731 5727 5724 5720 5716 5712 5708 5704 5700 5696 5692 5688 5684 5680 5676 5671 5667 5662 5657 5652 5647 5642 5637 5630 5624 5618 5612 5607 5603 5602 5601 5599 5598 5596 5594 5591
5790 5788 5787 5786 5784 5783 5781 5780 5778 5776 5774 5773 5771 5768 5766 5763 5761 5759 5756 5754 5751 5748 5744 5741 5737 5734 5730 5727 5723 5719 5716 5711 5707 5703 5699 5695 5691 5687 5683 5680 5675 5671 5666 5662 5657 5652 5647 5643 5637 5631 5624 5619 5614 5608 5604 5602 5601 5600 5598 5596 5594 5591
5788 5787 5786 5785 5783 5782 5780 5779 5777 5775 5773 5771 5769 5767 5765 5763 5761 5758 5756 5753 5750 5747 5743 5740 5737 5733 5730 5726 5723 5719 5715 5711 5707 5703 5699 5695 5691 5687 5683 5680 5676 5672 5667 5662 5658 5652 5646 5641 5636 5630 5625 5620 5616 5610 5606 5603 5602 5600 5598 5596 5594 5591
5787 5786 5785 5783 5782 5780 5779 5777 5776 5774 5772 5770 5768 5767 5765 5763 5760 5758 5755 5753 5750 5746 5743 5740 5737 5733 5729 5725 5722 5719 5715 5711 5707 5703 5699 5696 5691 5687 5683 5680 5676 5672 5668 5663 5658 5652 5646 5641 5636 5630 5625 5621 5617 5611 5607 5605 5603 5601 5598 5596 5594 5591
5786 5785 5784 5782 5781 5779 5778 5776 5775 5773 5771 5770 5768 5766 5764 5762 5760 5757 5754 5751 5749 5746 5743 5739 5736 5733 5729 5725 5722 5718 5715 5711 5707 5703 5699 5695 5691 5687 5684 5680 5677 5673 5669 5664 5659 5654 5648 5643 5638 5632 5627 5623 5617 5613 5609 5607 5605 5602 5599 5597 5595 5592
5785 5783 5782 5781 5780 5778 5777 5775 5773 5772 5770 5769 5767 5765 5763 5761 5759 5756 5753 5751 5748 5745 5742 5739 5736 5732 5729 5725 5721 5718 5715 5711 5707 5703 5699 5695 5691 5687 5683 5680 5677 5673 5669 5665 5660 5655 5650 5645 5639 5634 5629 5624 5620 5616 5612 5609 5607 5605 5602 5599 5596 5594
5783 5782 5781 5780 5778 5777 5775 5774 5772 5771 5769 5768 5766 5765 5762 5760 5758 5755 5752 5750 5748 5745 5742 5739 5736 5732 5728 5725 5721 5718 5715 5711 5707 5703 5699 5695 5691 5687 5684 5680 5677 5673 5670 5665 5661 5656 5651 5647 5642 5637 5632 5627 5623 5619 5615 5611 5609 5607 5604 5601 5598 5595
5782 5781 5780 5778 5777 5776 5774 5773 5771 5770 5769 5767 5765 5764 5762 5760 5757 5755 5752 5750 5747 5745 5742 5739 5735 5732 5728 5725 5721 5718 5715 5711 5707 5703 5699 5696 5692 5688 5684 5680 5677 5673 5670 5666 5662 5657 5653 5648 5644 5639 5635 5630 5626 5621 5618 5614 5611 5608 5606 5603 5600 5597
5781 5780 5778 5777 5776 5775 5773 5772 5770 5769 5768 5766 5765 5763 5761 5759 5757 5754 5751 5749 5747 5744 5741 5738 5735 5732 5728 5725 5721 5718 5715 5711 5708 5704 5700 5696 5692 5688 5684 5680 5677 5674 5670 5667 5662 5658 5654 5650 5646 5642 5638 5633 5629 5625 5621 5618 5614 5611 5608 5605 5602 5600
5780 5778 5777 5776 5775 5773 5772 5771 5769 5768 5767 5765 5764 5762 5760 5758 5756 5753 5751 5748 5746 5744 5741 5738 5735 5732 5728 5725 5721 5718 5715 5711 5708 5704 5700 5697 5693 5689 5685 5681 5678 5674 5671 5668 5664 5660 5656 5652 5648 5644 5640 5636 5632 5628 5624 5620 5617 5613 5610 5607 5605 5602
5779 5778 5776 5775 5774 5773 5771 5770 5769 5767 5766 5765 5763 5761 5760 5758 5755 5753 5750 5748 5745 5743 5740 5738 5735 5732 5728 5725 5721 5718 5715 5712 5708 5704 5701 5697 5694 5690 5686 5682 5678 5675 5672 5668 5665 5662 5658 5654 5650 5646 5642 5639 5635 5631 5627 5623 5619 5616 5613 5610 5607 5605
5778 5777 5776 5774 5773 5772 5770 5769 5768 5767 5766 5764 5763 5761 5759 5757 5755 5752 5749 5747 5745 5742 5740 5737 5735 5731 5728 5725 5721 5718 5715 5712 5708 5705 5701 5698 5694 5691 5687 5683 5679 5676 5672 5669 5666 5663 5659 5656 5652 5648 5645 5641 5637 5633 5630 5626 5622 5619 5616 5613 5610 5608
5777 5776 5775 5774 5772 5771 5770 5769 5767 5766 5765 5764 5762 5760 5758 5756 5754 5751 5749 5746 5744 5742 5740 5737 5734 5731 5728 5725 5721 5718 5715 5712 5709 5705 5702 5698 5695 5691 5687 5684 5680 5676 5673 5670 5667 5663 5660 5657 5654 5650 5647 5643 5639 5636 5632 5629 5625 5622 5619 5616 5613 5610
5777 5775 5774 5773 5772 5771 5769 5768 5767 5766 5765 5763 5762 5760 5758 5756 5753 5751 5749 5746 5744 5742 5739 5737 5734 5731 5728 5725 5721 5718 5715 5712 5709 5705 5702 5699 5695 5692 5688 5684 5681 5677 5674 5670 5667 5664 5661 5658 5655 5652 5649 5645 5641 5638 5635 5632 5629 5626 5622 5619 5616 5613
5776 5775 5774 5773 5771 5770 5769 5768 5766 5765 5764 5763 5761 5759 5757 5755 5753 5750 5748 5746 5744 5741 5739 5736 5733 5730 5727 5724 5721 5718 5715 5712 5709 5706 5702 5699 5696 5692 5689 5685 5682 5678 5675 5671 5668 5665 5662 5659 5656 5654 5651 5648 5644 5640 5637 5634 5631 5628 5625 5622 5619 5616
5776 5774 5773 5772 5771 5770 5768 5767 5766 5765 5764 5762 5761 5759 5757 5755 5752 5750 5748 5746 5743 5741 5739 5736 5733 5730 5727 5724 5721 5718 5715 5712 5709 5706 5703 5699 5696 5693 5689 5685 5682 5679 5676 5672 5669 5666 5663 5660 5657 5654 5652 5649 5646 5642 5639 5636 5633 5631 5628 5625 5622 5619